Rocky Mount, NC

9:38 PM EST on February 07, 2016 (GMT -0500)
Rocky Mount-Wilson Regional

Weather History for KRWI - May, 2014

Change the Weather History Date:

Tuesday, May 13, 2014

  Actual Average Record
Temperature  
Mean Temperature 78 °F -  
Max Temperature 93 °F 80 °F 95 °F (2000)
Min Temperature 66 °F 57 °F 45 °F (2006)
Cooling Degree Days 14    
Growing Degree Days 28 (Base 50)    
Moisture  
Dew Point 66 °F    
Average Humidity 71    
Maximum Humidity 97    
Minimum Humidity 37    
Precipitation  
Precipitation 0.00 in - - ()
Sea Level Pressure  
Sea Level Pressure 30.12 in    
Wind  
Wind Speed 3 mph (SSW)    
Max Wind Speed 8 mph    
Max Gust Speed -    
Visibility 8 miles    
Events      
Averages and records for this station are not official NWS values.
T = Trace of Precipitation, MM = Missing Value Source: NWS Daily Summary

Daily Weather History Graph

Daily Weather History Graph

Search for Another Location

Airport or City:

Trip Planner

Search our weather history database for the weather conditions in past years. The results will help you decide how hot, cold, wet, or windy it might be!

Date:

Astronomy

May. 13, 2014 Rise Set
Actual Time 6:07 AM EDT 8:08 PM EDT
Civil Twilight 5:39 AM EDT 8:36 PM EDT
Nautical Twilight 5:05 AM EDT 9:11 PM EDT
Astronomical Twilight 4:28 AM EDT 9:48 PM EDT
Moon 7:10 PM EDT (5/13) 5:19 AM EDT (5/13)
Length of Visible Light 14h 57m
Length of Day
14h 00m
Waxing Gibbous, 98% of the Moon is Illuminated
May 13
Waxing Gibbous
May 14
Full
May 21
Last Quarter
May 28
New
Jun 5
First Quarter

Hourly Weather History & Observations

Time (EDT) Temp. Heat Index Dew Point Humidity Pressure Visibility Wind Dir Wind Speed Gust Speed Precip Events Conditions
12:53 AM 68.0 °F - 64.9 °F 90% 30.13 in 9.0 mi Calm Calm - N/A   Clear
2:53 AM 69.1 °F - 66.9 °F 93% 30.10 in 7.0 mi South 3.5 mph - N/A   Clear
3:53 AM 68.0 °F - 66.9 °F 96% 30.11 in 5.0 mi SSW 3.5 mph - N/A   Clear
4:53 AM 66.9 °F - 66.0 °F 97% 30.12 in 4.0 mi South 3.5 mph - N/A   Clear
5:53 AM 68.0 °F - 66.9 °F 96% 30.12 in 5.0 mi South 3.5 mph - N/A   Clear
6:21 AM 68.0 °F - 66.0 °F 93% 30.13 in 2.5 mi Calm Calm - N/A   Clear
6:31 AM 66.9 °F - 66.0 °F 97% 30.13 in 1.2 mi Calm Calm - N/A   Clear
6:46 AM 68.0 °F - 66.0 °F 93% 30.13 in 2.5 mi South 3.5 mph - N/A   Clear
6:53 AM 68.0 °F - 66.9 °F 96% 30.13 in 3.0 mi South 3.5 mph - N/A   Clear
7:53 AM 73.0 °F - 70.0 °F 90% 30.14 in 6.0 mi SSW 8.1 mph - N/A   Clear
9:53 AM 82.0 °F 85.5 °F 69.1 °F 65% 30.15 in 10.0 mi SW 6.9 mph - N/A   Clear
10:53 AM 84.9 °F 88.8 °F 69.1 °F 59% 30.15 in 10.0 mi West 6.9 mph - N/A   Clear
12:53 PM 89.1 °F 91.3 °F 66.0 °F 46% 30.14 in 10.0 mi WSW 5.8 mph - N/A   Partly Cloudy
1:53 PM 89.1 °F 91.0 °F 64.9 °F 45% 30.12 in 10.0 mi Calm Calm - N/A   Scattered Clouds
2:53 PM 91.0 °F 92.6 °F 64.0 °F 41% 30.11 in 10.0 mi SSW 8.1 mph - N/A   Partly Cloudy
3:53 PM 91.9 °F 92.5 °F 62.1 °F 37% 30.09 in 10.0 mi South 4.6 mph - N/A   Clear
4:53 PM 91.0 °F 91.9 °F 63.0 °F 39% 30.09 in 10.0 mi SSE 6.9 mph - N/A   Partly Cloudy
5:53 PM 90.0 °F 90.3 °F 62.1 °F 39% 30.08 in 10.0 mi South 5.8 mph - N/A   Clear
6:53 PM 88.0 °F 88.7 °F 63.0 °F 43% 30.08 in 10.0 mi South 3.5 mph - N/A   Clear
7:53 PM 79.0 °F - 66.0 °F 64% 30.09 in 10.0 mi Calm Calm - N/A   Clear
8:53 PM 75.0 °F - 64.0 °F 69% 30.10 in 10.0 mi Calm Calm - N/A   Clear
9:53 PM 75.9 °F - 66.9 °F 74% 30.12 in 10.0 mi South 4.6 mph - N/A   Clear
10:53 PM 77.0 °F - 66.9 °F 71% 30.14 in 10.0 mi South 6.9 mph - N/A   Clear
11:53 PM 75.9 °F - 66.9 °F 74% 30.15 in 10.0 mi South 5.8 mph - N/A   Clear